HAZ6715 RCSS-RCBS

Flight info

Callsign HAZ6715
Flight time 0h 50m
Altitude 30000
Route XEBEC1A XEBEC V21 MKG W6 SANDY
Aircraft E75L/M-SDE3GILORVW/S

Departure

Time 2026-05-05 03:44
Airport Taipei Songshan International Airport (RCSS)

Arrival

Time 2026-05-05 04:34
Airport Kinmen Airport (RCBS)
Time Latitude Longitude Altitude Speed Heading
2026-05-05 03:35 25.06553 121.55785 30 ft 0 kts 165°
2026-05-05 03:36 25.06567 121.55781 29 ft 2 kts 165°
2026-05-05 03:36 25.06581 121.55777 29 ft 2 kts 165°
2026-05-05 03:37 25.06595 121.55772 29 ft 2 kts 165°
2026-05-05 03:37 25.06609 121.55769 29 ft 2 kts 165°
2026-05-05 03:37 25.06624 121.55764 29 ft 2 kts 165°
2026-05-05 03:37 25.06638 121.55759 29 ft 2 kts 165°
2026-05-05 03:38 25.06653 121.55756 29 ft 2 kts 187°
2026-05-05 03:38 25.06666 121.55764 29 ft 2 kts 230°
2026-05-05 03:38 25.06671 121.55775 29 ft 1 kts 256°
2026-05-05 03:38 25.06671 121.55776 29 ft 0 kts 256°
2026-05-05 03:39 25.06670 121.55770 29 ft 1 kts 254°
2026-05-05 03:39 25.06662 121.55738 29 ft 8 kts 255°
2026-05-05 03:39 25.06639 121.55641 27 ft 15 kts 257°
2026-05-05 03:40 25.06611 121.55520 25 ft 17 kts 255°
2026-05-05 03:40 25.06582 121.55388 25 ft 17 kts 261°
2026-05-05 03:40 25.06574 121.55249 26 ft 18 kts 269°
2026-05-05 03:40 25.06568 121.55107 27 ft 18 kts 267°
2026-05-05 03:41 25.06567 121.55003 29 ft 17 kts 269°
2026-05-05 03:41 25.06563 121.54831 29 ft 18 kts 268°
2026-05-05 03:41 25.06588 121.54697 31 ft 18 kts 300°
2026-05-05 03:41 25.06656 121.54575 30 ft 19 kts 303°
2026-05-05 03:42 25.06741 121.54459 30 ft 20 kts 301°
2026-05-05 03:42 25.06815 121.54325 30 ft 20 kts 302°
2026-05-05 03:42 25.06891 121.54184 30 ft 21 kts 295°
2026-05-05 03:42 25.06914 121.54029 30 ft 14 kts 274°
2026-05-05 03:43 25.06981 121.53980 29 ft 13 kts 26°
2026-05-05 03:43 25.07001 121.54079 30 ft 21 kts 89°
2026-05-05 03:43 25.06986 121.54534 27 ft 92 kts 92°
2026-05-05 03:43 25.06952 121.55447 47 ft 141 kts 92°
2026-05-05 03:44 25.06918 121.56492 611 ft 138 kts 92°
2026-05-05 03:44 25.06883 121.57562 1181 ft 141 kts 92°
2026-05-05 03:44 25.06850 121.58552 1417 ft 127 kts 92°
2026-05-05 03:44 25.06696 121.59608 1340 ft 157 kts 107°
2026-05-05 03:45 25.06053 121.60699 1708 ft 187 kts 129°
2026-05-05 03:45 25.05073 121.61790 2135 ft 214 kts 142°
2026-05-05 03:45 25.03614 121.62219 2908 ft 228 kts 187°
2026-05-05 03:45 25.02211 121.61430 3714 ft 241 kts 224°
2026-05-05 03:46 25.01154 121.59949 4388 ft 255 kts 229°
2026-05-05 03:46 25.00034 121.58410 5183 ft 262 kts 228°
2026-05-05 03:46 24.98854 121.56859 6092 ft 264 kts 227°
2026-05-05 03:46 24.97666 121.55332 7002 ft 264 kts 228°
2026-05-05 03:47 24.96475 121.53818 7878 ft 264 kts 229°
2026-05-05 03:47 24.95273 121.52299 8702 ft 265 kts 229°
2026-05-05 03:47 24.94102 121.50825 9688 ft 257 kts 230°
2026-05-05 03:47 24.92945 121.49367 10622 ft 251 kts 231°
2026-05-05 03:48 24.91821 121.47953 11420 ft 248 kts 231°
2026-05-05 03:48 24.90676 121.46513 12145 ft 249 kts 232°
2026-05-05 03:48 24.89538 121.45084 12826 ft 251 kts 232°
2026-05-05 03:48 24.88386 121.43636 13473 ft 253 kts 232°
2026-05-05 03:49 24.87233 121.42189 14109 ft 254 kts 232°
2026-05-05 03:49 24.86002 121.40791 14696 ft 262 kts 217°
2026-05-05 03:49 24.84256 121.39945 14899 ft 288 kts 204°
2026-05-05 03:49 24.82276 121.39233 14963 ft 310 kts 203°
2026-05-05 03:50 24.80168 121.38470 15185 ft 325 kts 203°
2026-05-05 03:50 24.78004 121.37683 15674 ft 330 kts 203°
2026-05-05 03:50 24.75824 121.36890 16312 ft 330 kts 202°
2026-05-05 03:50 24.73636 121.36092 16961 ft 329 kts 202°
2026-05-05 03:51 24.71487 121.35309 17545 ft 330 kts 202°
2026-05-05 03:51 24.69298 121.34510 18082 ft 332 kts 202°
2026-05-05 03:51 24.67109 121.33712 18604 ft 334 kts 203°
2026-05-05 03:51 24.64892 121.32904 19138 ft 335 kts 202°
2026-05-05 03:52 24.62677 121.32098 19627 ft 337 kts 203°
2026-05-05 03:52 24.60458 121.31290 20087 ft 339 kts 203°
2026-05-05 03:52 24.58222 121.30476 20563 ft 341 kts 203°
2026-05-05 03:52 24.55969 121.29655 21052 ft 342 kts 203°
2026-05-05 03:53 24.53705 121.28832 21524 ft 343 kts 203°
2026-05-05 03:53 24.51425 121.28003 21975 ft 344 kts 203°
2026-05-05 03:53 24.49159 121.27180 22416 ft 345 kts 204°
2026-05-05 03:53 24.46869 121.26347 22819 ft 348 kts 204°
2026-05-05 03:54 24.44554 121.25506 23233 ft 349 kts 204°
2026-05-05 03:54 24.42255 121.24669 23630 ft 351 kts 206°
2026-05-05 03:54 24.40164 121.23358 23921 ft 344 kts 227°
2026-05-05 03:54 24.38770 121.21255 24304 ft 342 kts 240°
2026-05-05 03:55 24.37590 121.18973 24708 ft 344 kts 242°
2026-05-05 03:55 24.36433 121.16672 25108 ft 345 kts 242°
2026-05-05 03:55 24.35299 121.14397 25526 ft 346 kts 243°
2026-05-05 03:55 24.34147 121.12075 25915 ft 347 kts 243°
2026-05-05 03:56 24.32988 121.09736 26265 ft 349 kts 243°
2026-05-05 03:56 24.31829 121.07398 26615 ft 350 kts 243°
2026-05-05 03:56 24.30679 121.05077 26955 ft 352 kts 243°
2026-05-05 03:56 24.29498 121.02696 27307 ft 354 kts 243°
2026-05-05 03:57 24.28334 121.00351 27655 ft 355 kts 244°
2026-05-05 03:57 24.27149 120.97963 27982 ft 356 kts 244°
2026-05-05 03:57 24.25982 120.95615 28144 ft 349 kts 244°
2026-05-05 03:57 24.24814 120.93262 28153 ft 353 kts 244°
2026-05-05 03:58 24.22459 120.88528 28128 ft 357 kts 244°
2026-05-05 03:58 24.20072 120.83737 28095 ft 356 kts 244°
2026-05-05 03:59 24.17709 120.78999 28077 ft 357 kts 244°
2026-05-05 03:59 24.15329 120.74232 28064 ft 356 kts 244°
2026-05-05 04:00 24.12959 120.69489 28044 ft 357 kts 244°
2026-05-05 04:00 24.10588 120.64748 28040 ft 356 kts 244°
2026-05-05 04:01 24.08204 120.59988 28039 ft 357 kts 244°
2026-05-05 04:01 24.05812 120.55215 28022 ft 356 kts 244°
2026-05-05 04:02 24.03448 120.50497 28024 ft 358 kts 244°
2026-05-05 04:02 24.01064 120.45741 28015 ft 356 kts 244°
2026-05-05 04:03 23.98671 120.40974 28018 ft 357 kts 244°
2026-05-05 04:03 23.96286 120.36231 28007 ft 357 kts 244°
2026-05-05 04:04 23.93895 120.31480 28021 ft 358 kts 244°
2026-05-05 04:04 23.91490 120.26706 28016 ft 358 kts 244°
2026-05-05 04:05 23.89104 120.21976 28016 ft 358 kts 244°
2026-05-05 04:05 23.86701 120.17216 28021 ft 358 kts 244°
2026-05-05 04:06 23.84298 120.12460 28009 ft 358 kts 244°
2026-05-05 04:06 23.81897 120.07712 28009 ft 358 kts 244°
2026-05-05 04:07 23.79492 120.02962 28006 ft 358 kts 244°
2026-05-05 04:07 23.77067 119.98177 28006 ft 358 kts 244°
2026-05-05 04:08 23.74666 119.93443 28004 ft 360 kts 244°
2026-05-05 04:08 23.73448 119.91046 28000 ft 360 kts 244°
2026-05-05 04:08 23.72240 119.88667 28004 ft 359 kts 244°
2026-05-05 04:09 23.69825 119.83916 28006 ft 359 kts 244°
2026-05-05 04:09 23.67413 119.79173 28011 ft 358 kts 244°
2026-05-05 04:10 23.64996 119.74427 28011 ft 358 kts 244°
2026-05-05 04:10 23.62614 119.69600 28019 ft 366 kts 250°
2026-05-05 04:11 23.61643 119.64178 28020 ft 373 kts 270°
2026-05-05 04:11 23.61893 119.61334 27576 ft 377 kts 278°
2026-05-05 04:11 23.62643 119.58651 27204 ft 376 kts 289°
2026-05-05 04:12 23.63933 119.56133 26779 ft 383 kts 303°
2026-05-05 04:12 23.65693 119.53975 26380 ft 382 kts 303°
2026-05-05 04:12 23.67319 119.51713 25954 ft 380 kts 301°
2026-05-05 04:12 23.68875 119.49405 25534 ft 377 kts 300°
2026-05-05 04:13 23.70406 119.47078 25115 ft 376 kts 300°
2026-05-05 04:13 23.71919 119.44760 24699 ft 375 kts 300°
2026-05-05 04:13 23.73417 119.42458 24287 ft 374 kts 300°
2026-05-05 04:13 23.74932 119.40125 23872 ft 373 kts 300°
2026-05-05 04:14 23.76425 119.37826 23470 ft 372 kts 300°
2026-05-05 04:14 23.77902 119.35549 23061 ft 371 kts 299°
2026-05-05 04:14 23.79406 119.33228 22655 ft 369 kts 299°
2026-05-05 04:14 23.80880 119.30954 22250 ft 369 kts 299°
2026-05-05 04:15 23.82340 119.28700 21846 ft 367 kts 299°
2026-05-05 04:15 23.83816 119.26421 21440 ft 365 kts 299°
2026-05-05 04:15 23.85276 119.24165 21039 ft 364 kts 299°
2026-05-05 04:15 23.86740 119.21903 20637 ft 363 kts 299°
2026-05-05 04:16 23.88196 119.19650 20233 ft 361 kts 299°
2026-05-05 04:16 23.89639 119.17418 19836 ft 360 kts 299°
2026-05-05 04:16 23.91070 119.15204 19443 ft 359 kts 299°
2026-05-05 04:16 23.92515 119.12966 19043 ft 357 kts 299°
2026-05-05 04:17 23.93946 119.10748 18654 ft 357 kts 300°
2026-05-05 04:17 23.95150 119.08426 18188 ft 346 kts 282°
2026-05-05 04:17 23.95414 119.05893 17832 ft 339 kts 266°
2026-05-05 04:17 23.95355 119.03317 17426 ft 337 kts 265°
2026-05-05 04:18 23.95267 119.00777 17061 ft 332 kts 265°
2026-05-05 04:18 23.95169 118.98264 16689 ft 331 kts 265°
2026-05-05 04:18 23.95304 118.95789 16308 ft 336 kts 283°
2026-05-05 04:18 23.96294 118.93468 15980 ft 340 kts 294°
2026-05-05 04:19 23.97457 118.91225 15572 ft 337 kts 295°
2026-05-05 04:19 23.98611 118.89017 15209 ft 335 kts 295°
2026-05-05 04:19 23.99759 118.86829 14836 ft 330 kts 295°
2026-05-05 04:19 24.00907 118.84639 14471 ft 329 kts 295°
2026-05-05 04:20 24.02041 118.82478 14107 ft 327 kts 295°
2026-05-05 04:20 24.03161 118.80341 13749 ft 325 kts 295°
2026-05-05 04:20 24.04276 118.78214 13392 ft 322 kts 295°
2026-05-05 04:20 24.05383 118.76102 13036 ft 321 kts 295°
2026-05-05 04:21 24.06495 118.73980 12680 ft 318 kts 296°
2026-05-05 04:21 24.07585 118.71899 12333 ft 316 kts 296°
2026-05-05 04:21 24.08669 118.69827 11985 ft 314 kts 296°
2026-05-05 04:21 24.09741 118.67778 11640 ft 310 kts 296°
2026-05-05 04:22 24.10805 118.65745 11295 ft 303 kts 296°
2026-05-05 04:22 24.11844 118.63758 10960 ft 296 kts 296°
2026-05-05 04:22 24.12852 118.61829 10637 ft 289 kts 296°
2026-05-05 04:22 24.13831 118.59955 10322 ft 282 kts 296°
2026-05-05 04:23 24.14804 118.58091 10011 ft 276 kts 296°
2026-05-05 04:23 24.15744 118.56290 9712 ft 270 kts 296°
2026-05-05 04:23 24.16674 118.54507 9418 ft 269 kts 296°
2026-05-05 04:23 24.17600 118.52732 9123 ft 269 kts 296°
2026-05-05 04:24 24.18522 118.50961 8829 ft 269 kts 297°
2026-05-05 04:24 24.19441 118.49199 8534 ft 269 kts 297°
2026-05-05 04:24 24.20371 118.47413 8235 ft 268 kts 297°
2026-05-05 04:25 24.22215 118.43872 7640 ft 268 kts 297°
2026-05-05 04:25 24.23135 118.42104 7345 ft 269 kts 297°
2026-05-05 04:25 24.24068 118.40311 7046 ft 269 kts 297°
2026-05-05 04:25 24.24991 118.38535 6750 ft 268 kts 297°
2026-05-05 04:26 24.25901 118.36766 6451 ft 267 kts 294°
2026-05-05 04:26 24.26317 118.34827 6206 ft 258 kts 275°
2026-05-05 04:26 24.26500 118.32898 5917 ft 249 kts 275°
2026-05-05 04:26 24.26668 118.31054 5642 ft 241 kts 275°
2026-05-05 04:27 24.26829 118.29257 5406 ft 232 kts 275°
2026-05-05 04:27 24.26983 118.27532 5175 ft 223 kts 275°
2026-05-05 04:27 24.27131 118.25865 4896 ft 216 kts 275°
2026-05-05 04:27 24.27272 118.24268 4701 ft 206 kts 276°
2026-05-05 04:28 24.27756 118.22862 4437 ft 196 kts 315°
2026-05-05 04:28 24.28863 118.22063 4260 ft 188 kts 333°
2026-05-05 04:28 24.30024 118.21394 4044 ft 185 kts 333°
2026-05-05 04:28 24.31145 118.20760 3986 ft 179 kts 334°
2026-05-05 04:29 24.32221 118.20157 3675 ft 162 kts 334°
2026-05-05 04:29 24.33186 118.19620 3425 ft 153 kts 335°
2026-05-05 04:29 24.34173 118.19254 3242 ft 148 kts
2026-05-05 04:29 24.35079 118.19698 3096 ft 147 kts 48°
2026-05-05 04:30 24.35633 118.20647 2939 ft 145 kts 59°
2026-05-05 04:30 24.36110 118.21581 2648 ft 139 kts 60°
2026-05-05 04:30 24.36570 118.22511 2343 ft 141 kts 60°
2026-05-05 04:30 24.37029 118.23458 2024 ft 138 kts 60°
2026-05-05 04:31 24.37474 118.24391 1985 ft 138 kts 60°
2026-05-05 04:31 24.37916 118.25328 1985 ft 138 kts 60°
2026-05-05 04:31 24.38329 118.26212 1932 ft 124 kts 60°
2026-05-05 04:31 24.38718 118.27039 1794 ft 123 kts 59°
2026-05-05 04:32 24.39111 118.27863 1526 ft 120 kts 60°
2026-05-05 04:32 24.39455 118.28696 1287 ft 120 kts 63°
2026-05-05 04:32 24.39823 118.29526 1095 ft 118 kts 59°
2026-05-05 04:32 24.40249 118.30295 929 ft 118 kts 60°
2026-05-05 04:33 24.40609 118.31134 798 ft 122 kts 63°
2026-05-05 04:33 24.40989 118.31971 636 ft 122 kts 62°
2026-05-05 04:33 24.41376 118.32789 495 ft 121 kts 64°
2026-05-05 04:33 24.41737 118.33627 337 ft 122 kts 60°
2026-05-05 04:34 24.42131 118.34461 190 ft 123 kts 62°
2026-05-05 04:34 24.42518 118.35299 58 ft 122 kts 63°
2026-05-05 04:34 24.42862 118.36041 33 ft 85 kts 62°
2026-05-05 04:34 24.43069 118.36491 32 ft 49 kts 63°
2026-05-05 04:35 24.43192 118.36755 32 ft 28 kts 61°
2026-05-05 04:35 24.43309 118.36794 35 ft 14 kts 331°
2026-05-05 04:35 24.43379 118.36784 39 ft 8 kts 45°
2026-05-05 04:35 24.43412 118.36847 38 ft 9 kts 36°
2026-05-05 04:36 24.43447 118.36839 40 ft 3 kts 332°
2026-05-05 04:36 24.43466 118.36828 41 ft 4 kts 331°
2026-05-05 04:36 24.43487 118.36814 42 ft 2 kts 330°
2026-05-05 04:36 24.43491 118.36812 43 ft 0 kts 330°
2026-05-05 04:37 24.43493 118.36810 43 ft 0 kts 330°